Time,TemperatureF,DewpointF,PressureIn,WindDirection,WindDirectionDegrees,WindSpeedMPH,WindSpeedGustMPH,Humidity,HourlyPrecipIn,Conditions,Clouds,dailyrainin,SoftwareType,DateUTC
2013-02-18 00:00:00,15.2,-2.8,29.71,North,350,1.0,10.0,44,0.00,,,0.00,WeatherCatV1.11B39,2013-02-18 05:00:00,
2013-02-18 00:05:00,15.2,-3.2,29.72,NNE,13,7.0,10.0,43,0.00,,,0.00,WeatherCatV1.11B39,2013-02-18 05:05:00,
2013-02-18 00:10:00,15.2,-3.2,29.71,WNW,294,0.0,18.0,43,0.00,,,0.00,WeatherCatV1.11B39,2013-02-18 05:10:00,
2013-02-18 00:15:00,15.0,-3.4,29.71,NW,308,4.0,10.0,43,0.00,,,0.00,WeatherCatV1.11B39,2013-02-18 05:15:00,
2013-02-18 00:20:00,15.0,-3.4,29.72,NNW,334,1.0,8.0,43,0.00,,,0.00,WeatherCatV1.11B39,2013-02-18 05:20:00,
2013-02-18 00:25:00,15.0,-3.4,29.72,WNW,298,2.0,14.0,43,0.00,,,0.00,WeatherCatV1.11B39,2013-02-18 05:25:00,
2013-02-18 00:30:00,14.8,-3.6,29.72,NW,304,2.0,9.0,43,0.00,,,0.00,WeatherCatV1.11B39,2013-02-18 05:30:00,
2013-02-18 00:35:00,14.8,-3.1,29.73,WNW,285,0.0,6.0,44,0.00,,,0.00,WeatherCatV1.11B39,2013-02-18 05:35:00,
2013-02-18 00:40:00,14.9,-3.5,29.73,WNW,288,2.0,3.0,43,0.00,,,0.00,WeatherCatV1.11B39,2013-02-18 05:40:00,
2013-02-18 00:45:00,14.9,-3.0,29.73,NW,323,1.0,11.0,44,0.00,,,0.00,WeatherCatV1.11B39,2013-02-18 05:45:00,
2013-02-18 00:50:00,14.9,-3.5,29.73,WNW,290,4.0,10.0,43,0.00,,,0.00,WeatherCatV1.11B39,2013-02-18 05:50:00,
2013-02-18 00:55:00,14.7,-3.7,29.73,WNW,290,2.0,11.0,43,0.00,,,0.00,WeatherCatV1.11B39,2013-02-18 05:55:00,
2013-02-18 01:00:00,14.7,-3.7,29.74,NW,316,0.0,5.0,43,0.00,,,0.00,WeatherCatV1.11B39,2013-02-18 06:00:00,
2013-02-18 01:05:00,14.7,-3.7,29.74,WNW,287,13.0,13.0,43,0.00,,,0.00,WeatherCatV1.11B39,2013-02-18 06:05:00,
2013-02-18 01:10:00,14.7,-3.2,29.74,WNW,292,3.0,7.0,44,0.00,,,0.00,WeatherCatV1.11B39,2013-02-18 06:10:00,
2013-02-18 01:15:00,14.7,-3.2,29.73,WNW,283,20.0,20.0,44,0.00,,,0.00,WeatherCatV1.11B39,2013-02-18 06:15:00,
2013-02-18 01:20:00,14.7,-3.7,29.74,WNW,291,0.0,15.0,43,0.00,,,0.00,WeatherCatV1.11B39,2013-02-18 06:20:00,
2013-02-18 01:25:00,14.6,-2.8,29.74,NNW,330,0.0,8.0,45,0.00,,,0.00,WeatherCatV1.11B39,2013-02-18 06:25:00,
2013-02-18 01:30:00,14.6,-2.8,29.74,WNW,286,5.0,14.0,45,0.00,,,0.00,WeatherCatV1.11B39,2013-02-18 06:30:00,
2013-02-18 01:35:00,14.4,-3.0,29.74,WNW,293,2.0,7.0,45,0.00,,,0.00,WeatherCatV1.11B39,2013-02-18 06:35:00,
2013-02-18 01:40:00,14.4,-3.5,29.74,WNW,283,16.0,18.0,44,0.00,,,0.00,WeatherCatV1.11B39,2013-02-18 06:40:00,
2013-02-18 01:45:00,14.4,-3.0,29.74,WNW,289,2.0,8.0,45,0.00,,,0.00,WeatherCatV1.11B39,2013-02-18 06:45:00,
2013-02-18 01:50:00,14.4,-3.0,29.75,WNW,298,1.0,11.0,45,0.00,,,0.00,WeatherCatV1.11B39,2013-02-18 06:50:00,
2013-02-18 01:55:00,14.4,-3.0,29.75,WNW,300,1.0,13.0,45,0.00,,,0.00,WeatherCatV1.11B39,2013-02-18 06:55:00,
2013-02-18 02:00:00,14.4,-3.0,29.75,West,274,0.0,9.0,45,0.00,,,0.00,WeatherCatV1.11B39,2013-02-18 07:00:00,
2013-02-18 02:05:00,14.3,-3.1,29.75,WNW,291,3.0,7.0,45,0.00,,,0.00,WeatherCatV1.11B39,2013-02-18 07:05:00,
2013-02-18 02:10:00,14.2,-3.2,29.75,WNW,287,6.0,6.0,45,0.00,,,0.00,WeatherCatV1.11B39,2013-02-18 07:10:00,
2013-02-18 02:15:00,14.2,-3.2,29.75,WNW,286,6.0,10.0,45,0.00,,,0.00,WeatherCatV1.11B39,2013-02-18 07:15:00,
2013-02-18 02:20:00,14.2,-3.2,29.76,West,280,4.0,11.0,45,0.00,,,0.00,WeatherCatV1.11B39,2013-02-18 07:20:00,
2013-02-18 02:25:00,14.3,-3.6,29.76,WNW,301,1.0,11.0,44,0.00,,,0.00,WeatherCatV1.11B39,2013-02-18 07:25:00,
2013-02-18 02:30:00,14.3,-3.6,29.76,West,281,2.0,6.0,44,0.00,,,0.00,WeatherCatV1.11B39,2013-02-18 07:30:00,
2013-02-18 02:35:00,14.1,-3.3,29.76,West,281,2.0,13.0,45,0.00,,,0.00,WeatherCatV1.11B39,2013-02-18 07:35:00,
2013-02-18 02:40:00,14.1,-3.8,29.76,WNW,291,0.0,7.0,44,0.00,,,0.00,WeatherCatV1.11B39,2013-02-18 07:40:00,
2013-02-18 02:45:00,14.0,-3.4,29.77,WNW,292,2.0,4.0,45,0.00,,,0.00,WeatherCatV1.11B39,2013-02-18 07:45:00,
2013-02-18 02:50:00,14.1,-3.3,29.76,WNW,286,0.0,10.0,45,0.00,,,0.00,WeatherCatV1.11B39,2013-02-18 07:50:00,
2013-02-18 02:55:00,13.9,-3.5,29.77,WNW,292,1.0,9.0,45,0.00,,,0.00,WeatherCatV1.11B39,2013-02-18 07:55:00,
2013-02-18 03:00:00,13.9,-3.5,29.77,NW,310,0.0,19.0,45,0.00,,,0.00,WeatherCatV1.11B39,2013-02-18 08:00:00,
2013-02-18 03:05:00,13.8,-3.6,29.77,WNW,283,4.0,15.0,45,0.00,,,0.00,WeatherCatV1.11B39,2013-02-18 08:05:00,
2013-02-18 03:10:00,13.7,-3.7,29.78,West,271,11.0,11.0,45,0.00,,,0.00,WeatherCatV1.11B39,2013-02-18 08:10:00,
2013-02-18 03:15:00,13.7,-2.8,29.77,WNW,295,4.0,10.0,47,0.00,,,0.00,WeatherCatV1.11B39,2013-02-18 08:15:00,
2013-02-18 03:20:00,13.6,-3.3,29.78,WNW,282,2.0,9.0,46,0.00,,,0.00,WeatherCatV1.11B39,2013-02-18 08:20:00,
2013-02-18 03:25:00,13.6,-3.3,29.77,WNW,298,4.0,9.0,46,0.00,,,0.00,WeatherCatV1.11B39,2013-02-18 08:25:00,
2013-02-18 03:30:00,13.6,-3.3,29.78,WNW,293,3.0,3.0,46,0.00,,,0.00,WeatherCatV1.11B39,2013-02-18 08:30:00,
2013-02-18 03:35:00,13.5,-3.8,29.78,North,6,0.0,11.0,45,0.00,,,0.00,WeatherCatV1.11B39,2013-02-18 08:35:00,
2013-02-18 03:40:00,13.6,-3.8,29.78,WNW,294,4.0,6.0,45,0.00,,,0.00,WeatherCatV1.11B39,2013-02-18 08:40:00,
2013-02-18 03:45:00,13.4,-3.5,29.79,WNW,286,1.0,8.0,46,0.00,,,0.00,WeatherCatV1.11B39,2013-02-18 08:45:00,
2013-02-18 03:50:00,13.4,-3.5,29.78,NNW,345,4.0,16.0,46,0.00,,,0.00,WeatherCatV1.11B39,2013-02-18 08:50:00,
2013-02-18 03:55:00,13.5,-3.4,29.79,SSW,209,13.0,18.0,46,0.00,,,0.00,WeatherCatV1.11B39,2013-02-18 08:55:00,
2013-02-18 04:00:00,13.4,-3.5,29.79,NNW,331,0.0,7.0,46,0.00,,,0.00,WeatherCatV1.11B39,2013-02-18 09:00:00,
2013-02-18 04:05:00,13.4,-3.5,29.79,WNW,298,3.0,8.0,46,0.00,,,0.00,WeatherCatV1.11B39,2013-02-18 09:05:00,
2013-02-18 04:10:00,13.4,-3.5,29.80,NW,306,0.0,11.0,46,0.00,,,0.00,WeatherCatV1.11B39,2013-02-18 09:10:00,
2013-02-18 04:15:00,13.5,-3.4,29.80,WNW,287,8.0,14.0,46,0.00,,,0.00,WeatherCatV1.11B39,2013-02-18 09:15:00,
2013-02-18 04:20:00,13.4,-3.9,29.81,WNW,288,3.0,12.0,45,0.00,,,0.00,WeatherCatV1.11B39,2013-02-18 09:20:00,
2013-02-18 04:25:00,13.4,-3.5,29.80,West,278,4.0,14.0,46,0.00,,,0.00,WeatherCatV1.11B39,2013-02-18 09:25:00,
2013-02-18 04:30:00,13.3,-3.1,29.81,WNW,285,3.0,17.0,47,0.00,,,0.00,WeatherCatV1.11B39,2013-02-18 09:30:00,
2013-02-18 04:35:00,13.3,-3.6,29.82,West,280,5.0,7.0,46,0.00,,,0.00,WeatherCatV1.11B39,2013-02-18 09:35:00,
2013-02-18 04:40:00,13.1,-3.8,29.82,WNW,301,0.0,6.0,46,0.00,,,0.00,WeatherCatV1.11B39,2013-02-18 09:40:00,
2013-02-18 04:45:00,13.1,-3.8,29.83,WNW,293,5.0,5.0,46,0.00,,,0.00,WeatherCatV1.11B39,2013-02-18 09:45:00,
2013-02-18 04:50:00,12.9,-3.5,29.83,WNW,294,10.0,10.0,47,0.00,,,0.00,WeatherCatV1.11B39,2013-02-18 09:50:00,
2013-02-18 04:55:00,12.9,-3.9,29.83,WNW,284,0.0,4.0,46,0.00,,,0.00,WeatherCatV1.11B39,2013-02-18 09:55:00,
2013-02-18 05:00:00,12.9,-3.9,29.83,WNW,284,3.0,8.0,46,0.00,,,0.00,WeatherCatV1.11B39,2013-02-18 10:00:00,
2013-02-18 05:05:00,12.9,-3.9,29.83,WNW,287,10.0,12.0,46,0.00,,,0.00,WeatherCatV1.11B39,2013-02-18 10:05:00,
2013-02-18 05:10:00,12.9,-3.5,29.84,WNW,288,4.0,10.0,47,0.00,,,0.00,WeatherCatV1.11B39,2013-02-18 10:10:00,
2013-02-18 05:15:00,12.8,-4.0,29.84,WNW,289,5.0,14.0,46,0.00,,,0.00,WeatherCatV1.11B39,2013-02-18 10:15:00,
2013-02-18 05:20:00,12.8,-3.6,29.84,WNW,292,10.0,10.0,47,0.00,,,0.00,WeatherCatV1.11B39,2013-02-18 10:20:00,
2013-02-18 05:25:00,12.8,-3.6,29.85,WNW,286,6.0,6.0,47,0.00,,,0.00,WeatherCatV1.11B39,2013-02-18 10:25:00,
2013-02-18 05:30:00,12.8,-4.0,29.85,WNW,292,3.0,17.0,46,0.00,,,0.00,WeatherCatV1.11B39,2013-02-18 10:30:00,
2013-02-18 05:35:00,12.8,-4.0,29.85,WNW,295,3.0,5.0,46,0.00,,,0.00,WeatherCatV1.11B39,2013-02-18 10:35:00,
2013-02-18 05:37:00,12.8,-3.6,29.86,WNW,292,7.0,9.0,47,0.00,,,0.00,WeatherCatV1.11B39,2013-02-18 10:37:00,
2013-02-18 05:42:00,12.8,-3.6,29.86,WNW,299,4.0,8.0,47,0.00,,,0.00,WeatherCatV1.11B39,2013-02-18 10:42:00,
2013-02-18 05:47:00,12.6,-3.8,29.87,WNW,287,6.0,12.0,47,0.00,,,0.00,WeatherCatV1.11B39,2013-02-18 10:47:00,
2013-02-18 05:52:00,12.6,-4.2,29.88,West,280,8.0,9.0,46,0.00,,,0.00,WeatherCatV1.11B39,2013-02-18 10:52:00,
2013-02-18 05:57:00,12.6,-4.2,29.88,WNW,290,5.0,9.0,46,0.00,,,0.00,WeatherCatV1.11B39,2013-02-18 10:57:00,
2013-02-18 06:02:00,12.6,-4.2,29.88,West,270,6.0,12.0,46,0.00,,,0.00,WeatherCatV1.11B39,2013-02-18 11:02:00,
2013-02-18 06:07:00,12.6,-4.2,29.88,WNW,283,3.0,6.0,46,0.00,,,0.00,WeatherCatV1.11B39,2013-02-18 11:07:00,
2013-02-18 06:12:00,12.4,-3.9,29.88,WNW,288,2.0,12.0,47,0.00,,,0.00,WeatherCatV1.11B39,2013-02-18 11:12:00,
2013-02-18 06:17:00,12.4,-3.9,29.89,West,278,8.0,17.0,47,0.00,,,0.00,WeatherCatV1.11B39,2013-02-18 11:17:00,
2013-02-18 06:22:00,12.4,-3.9,29.89,WNW,285,4.0,5.0,47,0.00,,,0.00,WeatherCatV1.11B39,2013-02-18 11:22:00,
2013-02-18 06:27:00,12.4,-3.9,29.89,WNW,293,3.0,6.0,47,0.00,,,0.00,WeatherCatV1.11B39,2013-02-18 11:27:00,
2013-02-18 06:32:00,12.4,-3.9,29.90,WNW,296,0.0,4.0,47,0.00,,,0.00,WeatherCatV1.11B39,2013-02-18 11:32:00,
2013-02-18 06:37:00,12.3,-3.6,29.90,WNW,300,1.0,5.0,48,0.00,,,0.00,WeatherCatV1.11B39,2013-02-18 11:37:00,
2013-02-18 06:42:00,12.3,-4.0,29.91,NW,309,0.0,8.0,47,0.00,,,0.00,WeatherCatV1.11B39,2013-02-18 11:42:00,
2013-02-18 06:47:00,12.3,-4.0,29.91,WNW,287,1.0,7.0,47,0.00,,,0.00,WeatherCatV1.11B39,2013-02-18 11:47:00,
2013-02-18 06:52:00,12.2,-4.1,29.91,NW,304,3.0,7.0,47,0.00,,,0.00,WeatherCatV1.11B39,2013-02-18 11:52:00,
2013-02-18 06:57:00,12.3,-4.0,29.92,West,277,10.0,17.0,47,0.00,,,0.00,WeatherCatV1.11B39,2013-02-18 11:57:00,
2013-02-18 07:02:00,12.4,-3.9,29.91,WNW,294,1.0,14.0,47,0.00,,,0.00,WeatherCatV1.11B39,2013-02-18 12:02:00,
2013-02-18 07:07:00,12.4,-3.9,29.91,WNW,298,8.0,13.0,47,0.00,,,0.00,WeatherCatV1.11B39,2013-02-18 12:07:00,
2013-02-18 07:12:00,12.4,-3.9,29.92,WNW,296,4.0,10.0,47,0.00,,,0.00,WeatherCatV1.11B39,2013-02-18 12:12:00,
2013-02-18 07:17:00,12.6,-3.8,29.92,WNW,303,1.0,9.0,47,0.00,,,0.00,WeatherCatV1.11B39,2013-02-18 12:17:00,
2013-02-18 07:22:00,12.6,-3.8,29.93,WNW,287,2.0,9.0,47,0.00,,,0.00,WeatherCatV1.11B39,2013-02-18 12:22:00,
2013-02-18 07:27:00,12.8,-3.6,29.94,WNW,284,5.0,13.0,47,0.00,,,0.00,WeatherCatV1.11B39,2013-02-18 12:27:00,
2013-02-18 07:32:00,13.0,-3.4,29.94,West,281,3.0,8.0,47,0.00,,,0.00,WeatherCatV1.11B39,2013-02-18 12:32:00,
2013-02-18 07:37:00,13.0,-3.4,29.95,NW,305,3.0,8.0,47,0.00,,,0.00,WeatherCatV1.11B39,2013-02-18 12:37:00,
2013-02-18 07:42:00,13.3,-3.6,29.95,WNW,283,9.0,13.0,46,0.00,,,0.00,WeatherCatV1.11B39,2013-02-18 12:42:00,
2013-02-18 07:47:00,13.3,-3.6,29.95,WNW,297,0.0,10.0,46,0.00,,,0.00,WeatherCatV1.11B39,2013-02-18 12:47:00,
2013-02-18 07:52:00,13.4,-3.0,29.95,WNW,286,6.0,6.0,47,0.00,,,0.00,WeatherCatV1.11B39,2013-02-18 12:52:00,
2013-02-18 07:57:00,13.8,-3.1,29.95,WNW,283,8.0,17.0,46,0.00,,,0.00,WeatherCatV1.11B39,2013-02-18 12:57:00,
2013-02-18 08:02:00,14.0,-2.9,29.95,WNW,300,2.0,18.0,46,0.00,,,0.00,WeatherCatV1.11B39,2013-02-18 13:02:00,
2013-02-18 08:07:00,14.1,-2.8,29.95,WNW,283,9.0,11.0,46,0.00,,,0.00,WeatherCatV1.11B39,2013-02-18 13:07:00,
2013-02-18 08:12:00,14.3,-3.6,29.96,WNW,284,4.0,16.0,44,0.00,,,0.00,WeatherCatV1.11B39,2013-02-18 13:12:00,
2013-02-18 08:17:00,14.5,-3.4,29.96,WNW,284,7.0,9.0,44,0.00,,,0.00,WeatherCatV1.11B39,2013-02-18 13:17:00,
2013-02-18 08:22:00,14.6,-3.3,29.97,West,275,7.0,11.0,44,0.00,,,0.00,WeatherCatV1.11B39,2013-02-18 13:22:00,
2013-02-18 08:27:00,14.8,-3.1,29.97,WNW,290,0.0,14.0,44,0.00,,,0.00,WeatherCatV1.11B39,2013-02-18 13:27:00,
2013-02-18 08:32:00,15.1,-2.8,29.97,West,275,10.0,10.0,44,0.00,,,0.00,WeatherCatV1.11B39,2013-02-18 13:32:00,
2013-02-18 08:37:00,15.2,-2.8,29.98,WNW,288,0.0,13.0,44,0.00,,,0.00,WeatherCatV1.11B39,2013-02-18 13:37:00,
2013-02-18 08:42:00,15.4,-2.6,29.98,WNW,290,2.0,7.0,44,0.00,,,0.00,WeatherCatV1.11B39,2013-02-18 13:42:00,
2013-02-18 08:47:00,15.7,-2.3,29.98,WNW,294,0.0,11.0,44,0.00,,,0.00,WeatherCatV1.11B39,2013-02-18 13:47:00,
2013-02-18 08:52:00,15.9,-2.1,29.98,WNW,291,0.0,4.0,44,0.00,,,0.00,WeatherCatV1.11B39,2013-02-18 13:52:00,
2013-02-18 08:57:00,16.2,-1.8,29.98,WNW,287,2.0,7.0,44,0.00,,,0.00,WeatherCatV1.11B39,2013-02-18 13:57:00,
2013-02-18 09:02:00,16.7,-1.4,29.98,WNW,289,1.0,4.0,44,0.00,,,0.00,WeatherCatV1.11B39,2013-02-18 14:02:00,
2013-02-18 09:07:00,17.0,-1.6,29.98,WNW,286,0.0,6.0,43,0.00,,,0.00,WeatherCatV1.11B39,2013-02-18 14:07:00,
2013-02-18 09:12:00,17.3,-1.8,29.99,WNW,286,2.0,12.0,42,0.00,,,0.00,WeatherCatV1.11B39,2013-02-18 14:12:00,
2013-02-18 09:17:00,17.6,-1.5,29.99,WNW,286,1.0,5.0,42,0.00,,,0.00,WeatherCatV1.11B39,2013-02-18 14:17:00,
2013-02-18 09:22:00,18.0,-1.7,29.99,WNW,287,2.0,13.0,41,0.00,,,0.00,WeatherCatV1.11B39,2013-02-18 14:22:00,
2013-02-18 09:27:00,18.0,-2.7,29.98,WNW,282,3.0,13.0,39,0.00,,,0.00,WeatherCatV1.11B39,2013-02-18 14:27:00,
2013-02-18 09:32:00,18.3,-1.9,29.99,NW,319,0.0,12.0,40,0.00,,,0.00,WeatherCatV1.11B39,2013-02-18 14:32:00,
2013-02-18 09:37:00,18.8,-1.0,29.99,WNW,285,6.0,6.0,41,0.00,,,0.00,WeatherCatV1.11B39,2013-02-18 14:37:00,
2013-02-18 09:42:00,19.1,-1.2,29.99,WNW,295,2.0,6.0,40,0.00,,,0.00,WeatherCatV1.11B39,2013-02-18 14:42:00,
2013-02-18 09:47:00,19.5,-1.4,29.99,WNW,284,1.0,12.0,39,0.00,,,0.00,WeatherCatV1.11B39,2013-02-18 14:47:00,
2013-02-18 09:52:00,19.9,-2.1,29.98,WNW,291,4.0,7.0,37,0.00,,,0.00,WeatherCatV1.11B39,2013-02-18 14:52:00,
2013-02-18 09:57:00,20.2,-1.9,29.99,NW,309,0.0,7.0,37,0.00,,,0.00,WeatherCatV1.11B39,2013-02-18 14:57:00,
2013-02-18 10:02:00,20.9,-1.2,29.99,WNW,288,2.0,6.0,37,0.00,,,0.00,WeatherCatV1.11B39,2013-02-18 15:02:00,
2013-02-18 10:07:00,21.4,-0.8,30.00,West,279,0.0,9.0,37,0.00,,,0.00,WeatherCatV1.11B39,2013-02-18 15:07:00,
2013-02-18 10:12:00,21.6,-1.2,29.99,WNW,290,6.0,8.0,36,0.00,,,0.00,WeatherCatV1.11B39,2013-02-18 15:12:00,
2013-02-18 10:17:00,21.8,-1.6,29.99,WNW,286,8.0,8.0,35,0.00,,,0.00,WeatherCatV1.11B39,2013-02-18 15:17:00,
2013-02-18 10:22:00,22.1,-1.3,29.99,WNW,302,5.0,5.0,35,0.00,,,0.00,WeatherCatV1.11B39,2013-02-18 15:22:00,
2013-02-18 10:27:00,22.4,-1.7,29.99,NW,312,0.0,13.0,34,0.00,,,0.00,WeatherCatV1.11B39,2013-02-18 15:27:00,
2013-02-18 10:32:00,22.6,-2.1,29.99,NW,309,2.0,6.0,33,0.00,,,0.00,WeatherCatV1.11B39,2013-02-18 15:32:00,
2013-02-18 10:37:00,22.9,-1.2,29.99,WNW,298,3.0,3.0,34,0.00,,,0.00,WeatherCatV1.11B39,2013-02-18 15:37:00,
2013-02-18 10:42:00,23.2,-1.0,29.99,WNW,285,1.0,11.0,34,0.00,,,0.00,WeatherCatV1.11B39,2013-02-18 15:42:00,
2013-02-18 10:47:00,23.0,-2.4,29.99,WNW,288,2.0,7.0,32,0.00,,,0.00,WeatherCatV1.11B39,2013-02-18 15:47:00,
2013-02-18 10:52:00,23.3,-2.1,30.00,WNW,294,4.0,9.0,32,0.00,,,0.00,WeatherCatV1.11B39,2013-02-18 15:52:00,
2013-02-18 10:57:00,23.7,-2.5,30.00,WNW,294,0.0,4.0,31,0.00,,,0.00,WeatherCatV1.11B39,2013-02-18 15:57:00,
2013-02-18 11:02:00,23.9,-1.6,30.00,WNW,301,2.0,7.0,32,0.00,,,0.00,WeatherCatV1.11B39,2013-02-18 16:02:00,
2013-02-18 11:07:00,24.1,-1.4,30.00,NW,305,0.0,5.0,32,0.00,,,0.00,WeatherCatV1.11B39,2013-02-18 16:07:00,
2013-02-18 11:12:00,24.3,-3.3,30.00,WNW,296,4.0,6.0,29,0.00,,,0.00,WeatherCatV1.11B39,2013-02-18 16:12:00,
2013-02-18 11:17:00,24.5,-3.9,30.00,WNW,300,0.0,3.0,28,0.00,,,0.00,WeatherCatV1.11B39,2013-02-18 16:17:00,
2013-02-18 11:22:00,24.6,-2.4,30.00,WNW,288,10.0,10.0,30,0.00,,,0.00,WeatherCatV1.11B39,2013-02-18 16:22:00,
2013-02-18 11:27:00,24.5,-3.2,30.00,WNW,282,7.0,21.0,29,0.00,,,0.00,WeatherCatV1.11B39,2013-02-18 16:27:00,
2013-02-18 11:32:00,24.8,-2.2,30.00,NNW,332,0.0,5.0,30,0.00,,,0.00,WeatherCatV1.11B39,2013-02-18 16:32:00,
2013-02-18 11:37:00,25.4,-1.0,30.00,WNW,288,1.0,3.0,31,0.00,,,0.00,WeatherCatV1.11B39,2013-02-18 16:37:00,
2013-02-18 11:42:00,26.1,-1.8,30.00,West,279,0.0,8.0,29,0.00,,,0.00,WeatherCatV1.11B39,2013-02-18 16:42:00,
2013-02-18 11:47:00,26.6,-1.3,30.00,WNW,298,0.0,0.0,29,0.00,,,0.00,WeatherCatV1.11B39,2013-02-18 16:47:00,
2013-02-18 11:52:00,27.2,-0.8,30.00,NW,305,0.0,2.0,29,0.00,,,0.00,WeatherCatV1.11B39,2013-02-18 16:52:00,
2013-02-18 11:57:00,26.8,-1.9,30.00,WNW,293,2.0,13.0,28,0.00,,,0.00,WeatherCatV1.11B39,2013-02-18 16:57:00,
2013-02-18 12:02:00,26.6,-2.8,30.00,NW,304,0.0,7.0,27,0.00,,,0.00,WeatherCatV1.11B39,2013-02-18 17:02:00,
2013-02-18 12:07:00,26.8,-1.9,30.00,WNW,282,8.0,17.0,28,0.00,,,0.00,WeatherCatV1.11B39,2013-02-18 17:07:00,
2013-02-18 12:12:00,26.4,-3.0,30.00,WNW,285,3.0,24.0,27,0.00,,,0.00,WeatherCatV1.11B39,2013-02-18 17:12:00,
2013-02-18 12:17:00,26.2,-3.2,30.00,WNW,290,2.0,14.0,27,0.00,,,0.00,WeatherCatV1.11B39,2013-02-18 17:17:00,
2013-02-18 12:22:00,26.5,-2.9,30.00,WNW,303,2.0,11.0,27,0.00,,,0.00,WeatherCatV1.11B39,2013-02-18 17:22:00,
2013-02-18 12:27:00,27.0,-2.5,30.00,West,278,0.0,5.0,27,0.00,,,0.00,WeatherCatV1.11B39,2013-02-18 17:27:00,
2013-02-18 12:32:00,27.4,-2.1,30.00,NW,308,2.0,10.0,27,0.00,,,0.00,WeatherCatV1.11B39,2013-02-18 17:32:00,
2013-02-18 12:37:00,27.9,-1.7,30.00,WNW,288,0.0,7.0,27,0.00,,,0.00,WeatherCatV1.11B39,2013-02-18 17:37:00,
2013-02-18 12:42:00,27.9,-1.7,30.00,WNW,282,0.0,5.0,27,0.00,,,0.00,WeatherCatV1.11B39,2013-02-18 17:42:00,
2013-02-18 12:47:00,28.0,-1.6,30.00,WNW,282,6.0,18.0,27,0.00,,,0.00,WeatherCatV1.11B39,2013-02-18 17:47:00,
2013-02-18 12:52:00,27.8,-2.6,30.01,NW,305,0.0,10.0,26,0.00,,,0.00,WeatherCatV1.11B39,2013-02-18 17:52:00,
2013-02-18 12:57:00,28.0,-1.6,30.01,NW,323,1.0,9.0,27,0.00,,,0.00,WeatherCatV1.11B39,2013-02-18 17:57:00,
2013-02-18 13:02:00,28.4,-1.3,30.01,WNW,289,5.0,18.0,27,0.00,,,0.00,WeatherCatV1.11B39,2013-02-18 18:02:00,
2013-02-18 13:07:00,28.0,-1.6,30.01,WNW,290,5.0,8.0,27,0.00,,,0.00,WeatherCatV1.11B39,2013-02-18 18:07:00,
2013-02-18 13:12:00,28.0,-1.6,30.01,West,281,3.0,18.0,27,0.00,,,0.00,WeatherCatV1.11B39,2013-02-18 18:12:00,
2013-02-18 13:17:00,27.8,-1.8,30.01,WNW,301,2.0,15.0,27,0.00,,,0.00,WeatherCatV1.11B39,2013-02-18 18:17:00,
2013-02-18 13:22:00,28.2,-1.4,30.01,WNW,300,0.0,6.0,27,0.00,,,0.00,WeatherCatV1.11B39,2013-02-18 18:22:00,
2013-02-18 13:27:00,28.5,-1.2,30.01,NNE,18,0.0,5.0,27,0.00,,,0.00,WeatherCatV1.11B39,2013-02-18 18:27:00,
2013-02-18 13:32:00,28.9,-0.8,30.01,WNW,284,3.0,5.0,27,0.00,,,0.00,WeatherCatV1.11B39,2013-02-18 18:32:00,
2013-02-18 13:37:00,28.8,-0.9,30.02,NW,307,4.0,14.0,27,0.00,,,0.00,WeatherCatV1.11B39,2013-02-18 18:37:00,
2013-02-18 13:42:00,28.9,-2.5,30.01,WNW,301,0.0,3.0,25,0.00,,,0.00,WeatherCatV1.11B39,2013-02-18 18:42:00,
2013-02-18 13:47:00,29.2,-0.6,30.01,WNW,287,0.0,5.0,27,0.00,,,0.00,WeatherCatV1.11B39,2013-02-18 18:47:00,
2013-02-18 13:52:00,29.5,-1.1,30.02,NW,304,1.0,1.0,26,0.00,,,0.00,WeatherCatV1.11B39,2013-02-18 18:52:00,
2013-02-18 13:57:00,29.2,-1.4,30.02,WNW,297,1.0,12.0,26,0.00,,,0.00,WeatherCatV1.11B39,2013-02-18 18:57:00,
2013-02-18 14:02:00,29.0,-3.2,30.02,NW,306,1.0,7.0,24,0.00,,,0.00,WeatherCatV1.11B39,2013-02-18 19:02:00,
2013-02-18 14:07:00,28.9,-0.8,30.02,WNW,285,13.0,15.0,27,0.00,,,0.00,WeatherCatV1.11B39,2013-02-18 19:07:00,
2013-02-18 14:12:00,28.7,-1.8,30.03,WNW,284,1.0,8.0,26,0.00,,,0.00,WeatherCatV1.11B39,2013-02-18 19:12:00,
2013-02-18 14:17:00,29.3,-2.1,30.02,WNW,289,3.0,5.0,25,0.00,,,0.00,WeatherCatV1.11B39,2013-02-18 19:17:00,
2013-02-18 14:22:00,29.5,-1.9,30.02,West,279,0.0,2.0,25,0.00,,,0.00,WeatherCatV1.11B39,2013-02-18 19:22:00,
2013-02-18 14:27:00,29.5,-2.8,30.02,NE,36,0.0,8.0,24,0.00,,,0.00,WeatherCatV1.11B39,2013-02-18 19:27:00,
2013-02-18 14:32:00,29.9,-2.5,30.02,West,274,6.0,9.0,24,0.00,,,0.00,WeatherCatV1.11B39,2013-02-18 19:32:00,
2013-02-18 14:37:00,30.3,-1.2,30.03,West,275,13.0,13.0,25,0.00,,,0.00,WeatherCatV1.11B39,2013-02-18 19:37:00,
2013-02-18 14:42:00,30.1,-2.3,30.03,NW,319,0.0,3.0,24,0.00,,,0.00,WeatherCatV1.11B39,2013-02-18 19:42:00,
2013-02-18 14:47:00,30.4,-2.0,30.03,WNW,298,0.0,8.0,24,0.00,,,0.00,WeatherCatV1.11B39,2013-02-18 19:47:00,
2013-02-18 14:52:00,30.4,-2.0,30.03,WNW,292,4.0,4.0,24,0.00,,,0.00,WeatherCatV1.11B39,2013-02-18 19:52:00,
2013-02-18 14:57:00,30.8,-1.7,30.03,WNW,297,1.0,6.0,24,0.00,,,0.00,WeatherCatV1.11B39,2013-02-18 19:57:00,
2013-02-18 15:02:00,30.7,-1.8,30.03,NW,309,0.0,2.0,24,0.00,,,0.00,WeatherCatV1.11B39,2013-02-18 20:02:00,
2013-02-18 15:07:00,31.0,-0.6,30.02,WNW,301,0.0,8.0,25,0.00,,,0.00,WeatherCatV1.11B39,2013-02-18 20:07:00,
2013-02-18 15:12:00,31.1,-3.2,30.03,West,278,1.0,6.0,22,0.00,,,0.00,WeatherCatV1.11B39,2013-02-18 20:12:00,
2013-02-18 15:17:00,31.1,-3.2,30.03,NW,319,0.0,6.0,22,0.00,,,0.00,WeatherCatV1.11B39,2013-02-18 20:17:00,
2013-02-18 15:22:00,31.3,-1.3,30.03,NW,307,0.0,7.0,24,0.00,,,0.00,WeatherCatV1.11B39,2013-02-18 20:22:00,
2013-02-18 15:27:00,31.0,-1.5,30.03,West,273,0.0,6.0,24,0.00,,,0.00,WeatherCatV1.11B39,2013-02-18 20:27:00,
2013-02-18 15:32:00,31.3,-1.3,30.03,WNW,290,3.0,5.0,24,0.00,,,0.00,WeatherCatV1.11B39,2013-02-18 20:32:00,
2013-02-18 15:37:00,31.0,-2.4,30.03,West,274,7.0,12.0,23,0.00,,,0.00,WeatherCatV1.11B39,2013-02-18 20:37:00,
2013-02-18 15:42:00,30.7,-3.6,30.03,WNW,286,10.0,18.0,22,0.00,,,0.00,WeatherCatV1.11B39,2013-02-18 20:42:00,
2013-02-18 15:47:00,30.4,-4.8,30.04,WNW,283,4.0,15.0,21,0.00,,,0.00,WeatherCatV1.11B39,2013-02-18 20:47:00,
2013-02-18 15:52:00,30.4,-4.8,30.04,WNW,282,5.0,16.0,21,0.00,,,0.00,WeatherCatV1.11B39,2013-02-18 20:52:00,
2013-02-18 15:57:00,30.5,-3.8,30.04,WNW,288,0.0,13.0,22,0.00,,,0.00,WeatherCatV1.11B39,2013-02-18 20:57:00,
2013-02-18 16:02:00,30.6,-3.7,30.05,West,277,6.0,12.0,22,0.00,,,0.00,WeatherCatV1.11B39,2013-02-18 21:02:00,
2013-02-18 16:07:00,30.1,-2.3,30.05,WSW,254,5.0,14.0,24,0.00,,,0.00,WeatherCatV1.11B39,2013-02-18 21:07:00,
2013-02-18 16:12:00,29.5,-1.9,30.05,West,261,12.0,20.0,25,0.00,,,0.00,WeatherCatV1.11B39,2013-02-18 21:12:00,
2013-02-18 16:17:00,29.2,-0.6,30.05,WNW,282,3.0,10.0,27,0.00,,,0.00,WeatherCatV1.11B39,2013-02-18 21:17:00,
2013-02-18 16:22:00,29.2,-2.2,30.06,WSW,255,6.0,13.0,25,0.00,,,0.00,WeatherCatV1.11B39,2013-02-18 21:22:00,
2013-02-18 16:27:00,29.2,-3.0,30.05,West,281,10.0,14.0,24,0.00,,,0.00,WeatherCatV1.11B39,2013-02-18 21:27:00,
2013-02-18 16:32:00,29.2,-2.2,30.06,West,275,6.0,8.0,25,0.00,,,0.00,WeatherCatV1.11B39,2013-02-18 21:32:00,
2013-02-18 16:37:00,29.2,-3.0,30.06,WNW,284,10.0,11.0,24,0.00,,,0.00,WeatherCatV1.11B39,2013-02-18 21:37:00,
2013-02-18 16:42:00,29.0,-1.5,30.06,West,276,4.0,9.0,26,0.00,,,0.00,WeatherCatV1.11B39,2013-02-18 21:42:00,
2013-02-18 16:47:00,28.9,-3.3,30.06,WNW,282,10.0,12.0,24,0.00,,,0.00,WeatherCatV1.11B39,2013-02-18 21:47:00,
2013-02-18 16:52:00,28.7,-2.6,30.06,West,259,5.0,13.0,25,0.00,,,0.00,WeatherCatV1.11B39,2013-02-18 21:52:00,
2013-02-18 16:57:00,28.6,-2.7,30.06,West,264,4.0,9.0,25,0.00,,,0.00,WeatherCatV1.11B39,2013-02-18 21:57:00,
2013-02-18 17:02:00,28.3,-3.0,30.06,West,280,6.0,10.0,25,0.00,,,0.00,WeatherCatV1.11B39,2013-02-18 22:02:00,
2013-02-18 17:07:00,28.2,-3.1,30.07,West,273,4.0,9.0,25,0.00,,,0.00,WeatherCatV1.11B39,2013-02-18 22:07:00,
2013-02-18 17:12:00,27.9,-3.3,30.06,WNW,291,3.0,11.0,25,0.00,,,0.00,WeatherCatV1.11B39,2013-02-18 22:12:00,
2013-02-18 17:17:00,27.7,-1.9,30.07,WNW,293,2.0,7.0,27,0.00,,,0.00,WeatherCatV1.11B39,2013-02-18 22:17:00,
2013-02-18 17:22:00,27.4,-2.1,30.07,WNW,289,4.0,11.0,27,0.00,,,0.00,WeatherCatV1.11B39,2013-02-18 22:22:00,
2013-02-18 17:27:00,27.3,-3.8,30.07,West,277,11.0,12.0,25,0.00,,,0.00,WeatherCatV1.11B39,2013-02-18 22:27:00,
2013-02-18 17:32:00,27.1,-4.0,30.07,West,275,6.0,10.0,25,0.00,,,0.00,WeatherCatV1.11B39,2013-02-18 22:32:00,
2013-02-18 17:37:00,27.0,-4.1,30.08,West,280,9.0,12.0,25,0.00,,,0.00,WeatherCatV1.11B39,2013-02-18 22:37:00,
2013-02-18 17:42:00,26.8,-3.4,30.08,WNW,289,2.0,9.0,26,0.00,,,0.00,WeatherCatV1.11B39,2013-02-18 22:42:00,
2013-02-18 17:47:00,26.8,-3.4,30.08,West,278,2.0,12.0,26,0.00,,,0.00,WeatherCatV1.11B39,2013-02-18 22:47:00,
2013-02-18 17:52:00,26.8,-3.4,30.08,West,281,4.0,11.0,26,0.00,,,0.00,WeatherCatV1.11B39,2013-02-18 22:52:00,
2013-02-18 17:57:00,26.7,-3.5,30.08,WNW,290,0.0,7.0,26,0.00,,,0.00,WeatherCatV1.11B39,2013-02-18 22:57:00,
2013-02-18 18:02:00,26.7,-3.5,30.09,West,269,5.0,11.0,26,0.00,,,0.00,WeatherCatV1.11B39,2013-02-18 23:02:00,
2013-02-18 18:07:00,26.5,-2.9,30.09,West,272,5.0,10.0,27,0.00,,,0.00,WeatherCatV1.11B39,2013-02-18 23:07:00,
2013-02-18 18:12:00,26.4,-3.0,30.09,WSW,247,9.0,11.0,27,0.00,,,0.00,WeatherCatV1.11B39,2013-02-18 23:12:00,
2013-02-18 18:17:00,26.4,-3.8,30.09,West,281,6.0,13.0,26,0.00,,,0.00,WeatherCatV1.11B39,2013-02-18 23:17:00,
2013-02-18 18:22:00,26.2,-3.2,30.09,WNW,291,9.0,12.0,27,0.00,,,0.00,WeatherCatV1.11B39,2013-02-18 23:22:00,
2013-02-18 18:27:00,26.2,-3.2,30.09,West,281,5.0,10.0,27,0.00,,,0.00,WeatherCatV1.11B39,2013-02-18 23:27:00,
2013-02-18 18:32:00,26.1,-3.3,30.10,West,270,3.0,10.0,27,0.00,,,0.00,WeatherCatV1.11B39,2013-02-18 23:32:00,
2013-02-18 18:37:00,26.0,-3.3,30.10,West,269,3.0,7.0,27,0.00,,,0.00,WeatherCatV1.11B39,2013-02-18 23:37:00,
2013-02-18 18:42:00,25.8,-3.5,30.10,WSW,257,7.0,7.0,27,0.00,,,0.00,WeatherCatV1.11B39,2013-02-18 23:42:00,
2013-02-18 18:47:00,25.8,-3.5,30.10,West,277,7.0,11.0,27,0.00,,,0.00,WeatherCatV1.11B39,2013-02-18 23:47:00,
2013-02-18 18:52:00,25.8,-3.5,30.11,WNW,283,4.0,6.0,27,0.00,,,0.00,WeatherCatV1.11B39,2013-02-18 23:52:00,
2013-02-18 18:57:00,25.5,-3.0,30.11,WSW,249,4.0,5.0,28,0.00,,,0.00,WeatherCatV1.11B39,2013-02-18 23:57:00,
2013-02-18 19:02:00,25.5,-3.0,30.11,West,269,3.0,4.0,28,0.00,,,0.00,WeatherCatV1.11B39,2013-02-19 00:02:00,
2013-02-18 19:07:00,25.3,-3.2,30.11,West,280,2.0,3.0,28,0.00,,,0.00,WeatherCatV1.11B39,2013-02-19 00:07:00,
2013-02-18 19:12:00,25.3,-2.5,30.11,WSW,252,0.0,6.0,29,0.00,,,0.00,WeatherCatV1.11B39,2013-02-19 00:12:00,
2013-02-18 19:17:00,25.2,-4.0,30.12,WSW,249,4.0,7.0,27,0.00,,,0.00,WeatherCatV1.11B39,2013-02-19 00:17:00,
2013-02-18 19:22:00,25.0,-2.0,30.12,WNW,285,7.0,8.0,30,0.00,,,0.00,WeatherCatV1.11B39,2013-02-19 00:22:00,
2013-02-18 19:27:00,24.9,-2.8,30.12,West,277,3.0,8.0,29,0.00,,,0.00,WeatherCatV1.11B39,2013-02-19 00:27:00,
2013-02-18 19:32:00,24.7,-2.3,30.12,WSW,251,4.0,8.0,30,0.00,,,0.00,WeatherCatV1.11B39,2013-02-19 00:32:00,
2013-02-18 19:37:00,24.6,-1.7,30.11,WSW,251,2.0,7.0,31,0.00,,,0.00,WeatherCatV1.11B39,2013-02-19 00:37:00,
2013-02-18 19:42:00,24.6,-2.4,30.12,WSW,255,4.0,8.0,30,0.00,,,0.00,WeatherCatV1.11B39,2013-02-19 00:42:00,
2013-02-18 19:47:00,24.4,-2.5,30.12,WSW,253,6.0,7.0,30,0.00,,,0.00,WeatherCatV1.11B39,2013-02-19 00:47:00,
2013-02-18 19:52:00,24.4,-2.5,30.12,WSW,249,3.0,6.0,30,0.00,,,0.00,WeatherCatV1.11B39,2013-02-19 00:52:00,
2013-02-18 19:57:00,24.3,-1.9,30.12,WSW,253,3.0,5.0,31,0.00,,,0.00,WeatherCatV1.11B39,2013-02-19 00:57:00,
2013-02-18 20:02:00,24.2,-2.7,30.12,West,260,3.0,5.0,30,0.00,,,0.00,WeatherCatV1.11B39,2013-02-19 01:02:00,
2013-02-18 20:07:00,24.1,-2.8,30.12,WNW,283,7.0,11.0,30,0.00,,,0.00,WeatherCatV1.11B39,2013-02-19 01:07:00,
2013-02-18 20:12:00,24.0,-1.5,30.12,West,270,3.0,7.0,32,0.00,,,0.00,WeatherCatV1.11B39,2013-02-19 01:12:00,
2013-02-18 20:17:00,23.8,-1.7,30.12,WNW,285,6.0,7.0,32,0.00,,,0.00,WeatherCatV1.11B39,2013-02-19 01:17:00,
2013-02-18 20:22:00,23.8,-1.7,30.13,West,270,5.0,10.0,32,0.00,,,0.00,WeatherCatV1.11B39,2013-02-19 01:22:00,
2013-02-18 20:27:00,23.8,-2.4,30.12,West,277,6.0,8.0,31,0.00,,,0.00,WeatherCatV1.11B39,2013-02-19 01:27:00,
2013-02-18 20:32:00,23.8,-1.7,30.13,West,281,4.0,5.0,32,0.00,,,0.00,WeatherCatV1.11B39,2013-02-19 01:32:00,
2013-02-18 20:37:00,23.7,-1.8,30.13,WNW,290,5.0,6.0,32,0.00,,,0.00,WeatherCatV1.11B39,2013-02-19 01:37:00,
2013-02-18 20:42:00,23.7,-1.8,30.13,West,278,0.0,5.0,32,0.00,,,0.00,WeatherCatV1.11B39,2013-02-19 01:42:00,
2013-02-18 20:47:00,23.8,-2.4,30.13,WSW,258,0.0,4.0,31,0.00,,,0.00,WeatherCatV1.11B39,2013-02-19 01:47:00,
2013-02-18 20:52:00,23.7,-2.5,30.14,WNW,288,5.0,7.0,31,0.00,,,0.00,WeatherCatV1.11B39,2013-02-19 01:52:00,
2013-02-18 20:57:00,23.5,-2.0,30.14,WSW,253,2.0,5.0,32,0.00,,,0.00,WeatherCatV1.11B39,2013-02-19 01:57:00,
2013-02-18 21:02:00,23.5,-2.0,30.13,WNW,284,2.0,7.0,32,0.00,,,0.00,WeatherCatV1.11B39,2013-02-19 02:02:00,
2013-02-18 21:07:00,23.5,-1.3,30.13,WSW,254,4.0,8.0,33,0.00,,,0.00,WeatherCatV1.11B39,2013-02-19 02:07:00,
2013-02-18 21:12:00,23.4,-2.1,30.14,West,274,5.0,11.0,32,0.00,,,0.00,WeatherCatV1.11B39,2013-02-19 02:12:00,
2013-02-18 21:17:00,23.5,-2.0,30.14,WSW,258,7.0,8.0,32,0.00,,,0.00,WeatherCatV1.11B39,2013-02-19 02:17:00,
2013-02-18 21:22:00,23.4,-2.1,30.14,WNW,285,3.0,5.0,32,0.00,,,0.00,WeatherCatV1.11B39,2013-02-19 02:22:00,
2013-02-18 21:27:00,23.3,-1.5,30.13,WSW,255,1.0,6.0,33,0.00,,,0.00,WeatherCatV1.11B39,2013-02-19 02:27:00,
2013-02-18 21:32:00,23.3,-1.5,30.14,West,273,2.0,5.0,33,0.00,,,0.00,WeatherCatV1.11B39,2013-02-19 02:32:00,
2013-02-18 21:37:00,23.1,-1.7,30.13,West,280,7.0,7.0,33,0.00,,,0.00,WeatherCatV1.11B39,2013-02-19 02:37:00,
2013-02-18 21:42:00,23.1,-1.7,30.13,West,280,6.0,10.0,33,0.00,,,0.00,WeatherCatV1.11B39,2013-02-19 02:42:00,
2013-02-18 21:47:00,23.1,-1.7,30.13,West,265,1.0,3.0,33,0.00,,,0.00,WeatherCatV1.11B39,2013-02-19 02:47:00,
2013-02-18 21:52:00,23.1,-1.7,30.14,WNW,283,4.0,8.0,33,0.00,,,0.00,WeatherCatV1.11B39,2013-02-19 02:52:00,
2013-02-18 21:57:00,23.1,-2.3,30.14,WSW,247,3.0,8.0,32,0.00,,,0.00,WeatherCatV1.11B39,2013-02-19 02:57:00,
2013-02-18 22:02:00,23.1,-1.7,30.14,WSW,256,4.0,7.0,33,0.00,,,0.00,WeatherCatV1.11B39,2013-02-19 03:02:00,
2013-02-18 22:07:00,23.0,-1.1,30.14,West,276,5.0,8.0,34,0.00,,,0.00,WeatherCatV1.11B39,2013-02-19 03:07:00,
2013-02-18 22:12:00,22.8,-1.3,30.14,WSW,254,5.0,6.0,34,0.00,,,0.00,WeatherCatV1.11B39,2013-02-19 03:12:00,
2013-02-18 22:17:00,22.7,-1.4,30.14,WSW,253,6.0,9.0,34,0.00,,,0.00,WeatherCatV1.11B39,2013-02-19 03:17:00,
2013-02-18 22:22:00,22.8,-1.9,30.15,West,271,6.0,7.0,33,0.00,,,0.00,WeatherCatV1.11B39,2013-02-19 03:22:00,
2013-02-18 22:27:00,22.7,-1.4,30.15,West,259,3.0,11.0,34,0.00,,,0.00,WeatherCatV1.11B39,2013-02-19 03:27:00,
2013-02-18 22:32:00,22.7,-1.4,30.15,WNW,285,1.0,8.0,34,0.00,,,0.00,WeatherCatV1.11B39,2013-02-19 03:32:00,
2013-02-18 22:37:00,22.6,-1.5,30.15,WSW,241,5.0,7.0,34,0.00,,,0.00,WeatherCatV1.11B39,2013-02-19 03:37:00,
2013-02-18 22:42:00,22.7,-1.4,30.15,WSW,249,2.0,4.0,34,0.00,,,0.00,WeatherCatV1.11B39,2013-02-19 03:42:00,
2013-02-18 22:47:00,22.6,-2.1,30.15,WSW,248,4.0,5.0,33,0.00,,,0.00,WeatherCatV1.11B39,2013-02-19 03:47:00,
2013-02-18 22:52:00,22.7,-0.8,30.15,WSW,246,0.0,5.0,35,0.00,,,0.00,WeatherCatV1.11B39,2013-02-19 03:52:00,
2013-02-18 22:57:00,22.5,-0.4,30.15,WNW,289,3.0,8.0,36,0.00,,,0.00,WeatherCatV1.11B39,2013-02-19 03:57:00,
2013-02-18 23:02:00,22.5,-1.6,30.15,WSW,253,4.0,7.0,34,0.00,,,0.00,WeatherCatV1.11B39,2013-02-19 04:02:00,
2013-02-18 23:07:00,22.5,-1.0,30.15,WSW,252,6.0,8.0,35,0.00,,,0.00,WeatherCatV1.11B39,2013-02-19 04:07:00,
2013-02-18 23:12:00,22.5,-1.0,30.15,WSW,250,1.0,5.0,35,0.00,,,0.00,WeatherCatV1.11B39,2013-02-19 04:12:00,
2013-02-18 23:17:00,22.4,-1.1,30.16,WSW,249,0.0,0.0,35,0.00,,,0.00,WeatherCatV1.11B39,2013-02-19 04:17:00,
2013-02-18 23:22:00,22.4,-1.7,30.15,WSW,249,0.0,0.0,34,0.00,,,0.00,WeatherCatV1.11B39,2013-02-19 04:22:00,
2013-02-18 23:27:00,22.4,-1.7,30.15,WSW,249,0.0,0.0,34,0.00,,,0.00,WeatherCatV1.11B39,2013-02-19 04:27:00,
2013-02-18 23:32:00,22.2,-1.2,30.15,WSW,249,0.0,0.0,35,0.00,,,0.00,WeatherCatV1.11B39,2013-02-19 04:32:00,
2013-02-18 23:37:00,22.2,-1.8,30.15,WSW,249,0.0,0.0,34,0.00,,,0.00,WeatherCatV1.11B39,2013-02-19 04:37:00,
2013-02-18 23:42:00,22.2,-1.2,30.15,WSW,250,0.0,0.0,35,0.00,,,0.00,WeatherCatV1.11B39,2013-02-19 04:42:00,
2013-02-18 23:48:00,22.1,-0.7,30.15,WSW,250,0.0,0.0,36,0.00,,,0.00,WeatherCatV1.11B39,2013-02-19 04:48:00,
2013-02-18 23:53:00,22.2,-1.2,30.16,WSW,250,0.0,0.0,35,0.00,,,0.00,WeatherCatV1.11B39,2013-02-19 04:53:00,
2013-02-18 23:58:00,22.1,-0.7,30.16,WSW,250,0.0,0.0,36,0.00,,,0.00,WeatherCatV1.11B39,2013-02-19 04:58:00,